Weather History for Rutland, VT

Change the Weather History Date:

Monday, February 18, 2013

  Actual Average Record
Temperature  
Mean Temperature 16 °F -  
Max Temperature 27 °F - 57 °F (2008)
Min Temperature 5 °F - -26 °F (1979)
Degree Days  
Heating Degree Days 49    
Month to date heating degree days 794  
Since 1 July heating degree days 4519  
Cooling Degree Days 0    
Month to date cooling degree days 0  
Year to date cooling degree days 0  
Moisture  
Dew Point -3 °F    
Average Humidity 47    
Maximum Humidity 69    
Minimum Humidity 25    
Precipitation  
Precipitation 0.00 in - 0.79 in (1952)
Month to date precipitation 0.00  
Year to date precipitation 1.24  
Sea Level Pressure  
Sea Level Pressure 30.02 in    
Wind  
Wind Speed 8 mph (WNW)    
Max Wind Speed 15 mph    
Max Gust Speed 20 mph    
Visibility 10 miles    
Events      
T = Trace of Precipitation, MM = Missing Value Source: NWS Daily Summary

Daily Weather History Graph

Daily Weather History Graph

Search for Another Location

Airport:

Trip Planner

Search our weather history database for the weather conditions in past years. The results will help you decide how hot, cold, wet, or windy it might be!

Date:

Astronomy

Feb. 18, 2013 Rise Set
Actual Time 6:45 AM EST 5:26 PM EST
Civil Twilight 6:16 AM EST 5:55 PM EST
Nautical Twilight 5:42 AM EST 6:29 PM EST
Astronomical Twilight 5:09 AM EST 7:02 PM EST
Moon 11:05 AM EST (2/18) 1:27 AM EST (2/18)
Length of Visible Light 11h 39m
Length of Day
10h 41m
First Quarter, 58% of the Moon is Illuminated
Feb 18
First Quarter
Feb 25
Full
Mar 4
Last Quarter
Mar 11
New
Mar 19
First Quarter

Hourly Weather History & Observations

Time (EST) Temp. Windchill Dew Point Humidity Pressure Visibility Wind Dir Wind Speed Gust Speed Precip Events Conditions
12:15 AM 8.6 °F -5.5 °F -2.2 °F 62% 29.81 in 10.0 mi WNW 10.4 mph 17.3 mph N/A   Mostly Cloudy
12:35 AM 8.6 °F -7.0 °F -2.2 °F 62% 29.82 in 10.0 mi West 12.7 mph - N/A   Overcast
12:55 AM 8.6 °F -5.5 °F -2.2 °F 62% 29.83 in 10.0 mi West 10.4 mph - N/A   Overcast
1:15 AM 8.6 °F -4.7 °F -2.2 °F 62% 29.84 in 10.0 mi West 9.2 mph - N/A   Overcast
1:35 AM 8.6 °F -5.5 °F -2.2 °F 62% 29.85 in 10.0 mi West 10.4 mph 17.3 mph N/A   Overcast
1:55 AM 8.6 °F -5.5 °F -2.2 °F 62% 29.86 in 10.0 mi WNW 10.4 mph 17.3 mph N/A   Overcast
2:15 AM 8.6 °F -7.0 °F -4.0 °F 57% 29.87 in 10.0 mi West 12.7 mph 16.1 mph N/A   Scattered Clouds
2:35 AM 8.6 °F -4.7 °F -2.2 °F 62% 29.88 in 10.0 mi West 9.2 mph - N/A   Partly Cloudy
2:55 AM 6.8 °F -7.8 °F -2.2 °F 67% 29.89 in 10.0 mi West 10.4 mph 16.1 mph N/A   Clear
3:15 AM 6.8 °F -8.6 °F -2.2 °F 67% 29.89 in 10.0 mi West 11.5 mph 17.3 mph N/A   Mostly Cloudy
3:35 AM 6.8 °F -8.6 °F -2.2 °F 67% 29.90 in 10.0 mi West 11.5 mph - N/A   Overcast
3:55 AM 6.8 °F -7.8 °F -2.2 °F 67% 29.91 in 10.0 mi West 10.4 mph - N/A   Scattered Clouds
4:15 AM 6.8 °F -7.8 °F -4.0 °F 61% 29.92 in 10.0 mi West 10.4 mph 17.3 mph N/A   Partly Cloudy
4:35 AM 6.8 °F -5.9 °F -2.2 °F 67% 29.93 in 10.0 mi West 8.1 mph - N/A   Clear
4:55 AM 6.8 °F -5.9 °F -5.8 °F 56% 29.94 in 10.0 mi West 8.1 mph - N/A   Clear
5:15 AM 6.8 °F -3.5 °F -4.0 °F 61% 29.95 in 10.0 mi WNW 5.8 mph - N/A   Clear
5:35 AM 6.8 °F -4.8 °F -4.0 °F 61% 29.96 in 10.0 mi West 6.9 mph - N/A   Clear
5:55 AM 6.8 °F -2.0 °F -5.8 °F 56% 29.97 in 10.0 mi WNW 4.6 mph - N/A   Clear
6:15 AM 6.8 °F -2.0 °F -4.0 °F 61% 29.98 in 10.0 mi WNW 4.6 mph - N/A   Clear
6:35 AM 5.0 °F -8.1 °F -4.0 °F 66% 29.99 in 10.0 mi West 8.1 mph - N/A   Clear
7:15 AM 6.8 °F -8.6 °F -4.0 °F 61% 30.01 in 10.0 mi WNW 11.5 mph - N/A   Clear
7:35 AM 6.8 °F -8.6 °F -4.0 °F 61% 30.03 in 10.0 mi WNW 11.5 mph 19.6 mph N/A   Clear
7:56 AM 6.8 °F -5.9 °F -2.2 °F 67% 30.04 in 10.0 mi West 8.1 mph 16.1 mph N/A   Clear
8:15 AM 8.6 °F -4.7 °F -4.0 °F 57% 30.05 in 10.0 mi WNW 9.2 mph - N/A   Clear
8:35 AM 8.6 °F -3.7 °F -2.2 °F 62% 30.06 in 10.0 mi WNW 8.1 mph - N/A   Clear
8:56 AM 10.4 °F -4.8 °F -4.0 °F 52% 30.06 in 10.0 mi WNW 12.7 mph 16.1 mph N/A   Clear
9:15 AM 10.4 °F -1.5 °F -2.2 °F 57% 30.06 in 10.0 mi WNW 8.1 mph - N/A   Clear
9:35 AM 10.4 °F -1.5 °F -2.2 °F 57% 30.07 in 10.0 mi WNW 8.1 mph - N/A   Clear
9:56 AM 12.2 °F -0.2 °F -4.0 °F 48% 30.06 in 10.0 mi WNW 9.2 mph - N/A   Clear
10:15 AM 12.2 °F -0.2 °F -4.0 °F 48% 30.07 in 10.0 mi WNW 9.2 mph - N/A   Clear
10:35 AM 14.0 °F 2.0 °F -2.2 °F 49% 30.07 in 10.0 mi NW 9.2 mph 17.3 mph N/A   Clear
10:55 AM 15.8 °F 4.2 °F -4.0 °F 41% 30.07 in 10.0 mi West 9.2 mph 16.1 mph N/A   Clear
11:15 AM 17.6 °F 5.7 °F -5.8 °F 35% 30.07 in 10.0 mi WNW 10.4 mph - N/A   Clear
11:55 AM 17.6 °F 5.0 °F -5.8 °F 35% 30.07 in 10.0 mi WNW 11.5 mph 17.3 mph N/A   Clear
12:55 PM 19.4 °F 6.6 °F -4.0 °F 36% 30.06 in 10.0 mi West 12.7 mph 19.6 mph N/A   Clear
1:15 PM 21.2 °F 9.5 °F -5.8 °F 30% 30.06 in 10.0 mi West 11.5 mph 18.4 mph N/A   Clear
1:35 PM 21.2 °F 8.9 °F -7.6 °F 28% 30.05 in 10.0 mi WNW 12.7 mph 17.3 mph N/A   Clear
1:55 PM 23.0 °F 10.1 °F -5.8 °F 28% 30.05 in 10.0 mi NW 15.0 mph - N/A   Clear
2:15 PM 24.8 °F 13.4 °F -5.8 °F 26% 30.04 in 10.0 mi WNW 12.7 mph 18.4 mph N/A   Clear
2:35 PM 24.8 °F 13.4 °F -7.6 °F 24% 30.04 in 10.0 mi West 12.7 mph 17.3 mph N/A   Clear
2:55 PM 24.8 °F 16.1 °F -5.8 °F 26% 30.05 in 10.0 mi NW 8.1 mph 18.4 mph N/A   Clear
3:15 PM 24.8 °F 14.0 °F -7.6 °F 24% 30.05 in 10.0 mi WNW 11.5 mph 18.4 mph N/A   Clear
3:35 PM 24.8 °F 12.4 °F -7.6 °F 24% 30.06 in 10.0 mi WNW 15.0 mph 20.7 mph N/A   Clear
3:55 PM 24.8 °F 14.6 °F -7.6 °F 24% 30.06 in 10.0 mi NW 10.4 mph 19.6 mph N/A   Clear
4:15 PM 24.8 °F 14.6 °F -7.6 °F 24% 30.06 in 10.0 mi NW 10.4 mph 19.6 mph N/A   Clear
4:35 PM 26.6 °F 18.2 °F -7.6 °F 22% 30.06 in 10.0 mi NW 8.1 mph - N/A   Clear
4:55 PM 24.8 °F 16.1 °F -7.6 °F 24% 30.07 in 10.0 mi WNW 8.1 mph - N/A   Clear
5:15 PM 24.8 °F 14.0 °F -7.6 °F 24% 30.08 in 10.0 mi WNW 11.5 mph - N/A   Clear
5:35 PM 24.8 °F 19.1 °F -7.6 °F 24% 30.09 in 10.0 mi WNW 4.6 mph - N/A   Clear
5:55 PM 21.2 °F 13.6 °F -4.0 °F 33% 30.09 in 10.0 mi North 5.8 mph - N/A   Clear
6:15 PM 21.2 °F 13.6 °F -5.8 °F 30% 30.10 in 10.0 mi NNW 5.8 mph - N/A   Clear
6:35 PM 21.2 °F 16.4 °F -2.2 °F 36% 30.10 in 10.0 mi North 3.5 mph - N/A   Clear
6:55 PM 21.2 °F - -4.0 °F 33% 30.10 in 10.0 mi Calm Calm - N/A   Clear
7:15 PM 19.4 °F 12.8 °F -2.2 °F 39% 30.10 in 10.0 mi North 4.6 mph - N/A   Clear
7:35 PM 19.4 °F - -5.8 °F 33% 30.11 in 10.0 mi Calm Calm - N/A   Clear
7:55 PM 19.4 °F 14.3 °F -2.2 °F 39% 30.11 in 10.0 mi North 3.5 mph - N/A   Clear
8:15 PM 19.4 °F 11.5 °F -4.0 °F 36% 30.10 in 10.0 mi NNW 5.8 mph - N/A   Clear
8:35 PM 19.4 °F 14.3 °F -4.0 °F 36% 30.10 in 10.0 mi NNW 3.5 mph - N/A   Clear
8:55 PM 17.6 °F - -0.4 °F 45% 30.11 in 10.0 mi Calm Calm - N/A   Clear
9:15 PM 15.8 °F 10.2 °F -0.4 °F 49% 30.10 in 10.0 mi WSW 3.5 mph - N/A   Clear
9:35 PM 17.6 °F - -0.4 °F 45% 30.11 in 10.0 mi Calm Calm - N/A   Clear
9:55 PM 15.8 °F - 5.0 °F 62% 30.11 in 10.0 mi Calm Calm - N/A   Clear
10:15 PM 14.0 °F 8.2 °F 3.2 °F 62% 30.10 in 10.0 mi East 3.5 mph - N/A   Clear
10:35 PM 15.8 °F 6.1 °F 3.2 °F 58% 30.09 in 10.0 mi SE 6.9 mph - N/A   Clear
10:55 PM 14.0 °F 5.1 °F 3.2 °F 62% 30.10 in 10.0 mi SE 5.8 mph - N/A   Clear
11:15 PM 15.8 °F 5.1 °F 1.4 °F 53% 30.09 in 10.0 mi ESE 8.1 mph - N/A   Clear
11:35 PM 15.8 °F 7.2 °F 1.4 °F 53% 30.10 in 10.0 mi SE 5.8 mph - N/A   Clear
11:55 PM 15.8 °F 4.2 °F 1.4 °F 53% 30.10 in 10.0 mi SE 9.2 mph - N/A   Clear